GW3020 Weather Reports


time (UTC)temp
C
wind
direction
speed
KPH
gust
KPH
rain 1hr
cm
rain 24hr
cm
rain mn
cm
humidity
%
barometer
mb
20260510184624 23 218 3.2 6.4 0.00 0.00 0.00 46 1015.4
20260510184119 23 190 4.8 4.8 0.00 0.00 0.00 46 1015.3
20260510183614 22 200 1.6 11.3 0.00 0.00 0.00 47 1015.4
20260510183110 23 266 6.4 9.7 0.00 0.00 0.00 45 1015.4
20260510182607 23 296 4.8 9.7 0.00 0.00 0.00 45 1015.4
20260510182102 23 258 3.2 9.7 0.00 0.00 0.00 46 1015.3
20260510181600 23 214 1.6 3.2 0.00 0.00 0.00 44 1015.4
20260510181056 23 183 3.2 4.8 0.00 0.00 0.00 44 1015.6
20260510180553 23 199 8.0 12.9 0.00 0.00 0.00 44 1015.6
20260510180050 23 243 6.4 14.5 0.00 0.00 0.00 47 1015.8
20260510175544 22 306 6.4 9.7 0.00 0.00 0.00 48 1015.7
20260510175041 23 1 3.2 6.4 0.00 0.00 0.00 45 1015.7
20260510174539 22 221 0.0 1.6 0.00 0.00 0.00 46 1015.8
20260510174036 22 205 0.0 4.8 0.00 0.00 0.00 45 1016.0
20260510173531 22 202 3.2 6.4 0.00 0.00 0.00 44 1016.0
20260510173028 22 160 3.2 11.3 0.00 0.00 0.00 45 1015.9
20260510172524 23 144 3.2 9.7 0.00 0.00 0.00 44 1016.1
20260510172020 23 215 4.8 11.3 0.00 0.00 0.00 46 1016.2
20260510171517 23 275 8.0 11.3 0.00 0.00 0.00 44 1015.9
20260510171014 22 307 3.2 6.4 0.00 0.00 0.00 44 1016.0
20260510170511 23 281 4.8 14.5 0.00 0.00 0.00 46 1016.2
20260510170007 22 229 1.6 4.8 0.00 0.00 0.00 47 1016.1
20260510165503 22 152 1.6 9.7 0.00 0.00 0.00 45 1016.2
20260510164959 22 264 3.2 12.9 0.00 0.00 0.00 45 1016.1
20260510164451 22 234 3.2 4.8 0.00 0.00 0.00 45 1016.3
20260510163946 22 157 3.2 11.3 0.00 0.00 0.00 45 1016.3
20260510163442 22 262 3.2 9.7 0.00 0.00 0.00 45 1016.2
20260510162937 22 263 6.4 11.3 0.00 0.00 0.00 48 1016.1
20260510162434 22 263 9.7 12.9 0.00 0.00 0.00 46 1016.2
20260510161930 22 303 8.0 12.9 0.00 0.00 0.00 47 1016.4
20260510161426 22 208 3.2 6.4 0.00 0.00 0.00 48 1016.5
20260510160924 21 229 1.6 11.3 0.00 0.00 0.00 51 1016.5
20260510160421 22 225 3.2 6.4 0.00 0.00 0.00 50 1016.4
20260510155919 21 265 8.0 12.9 0.00 0.00 0.00 47 1016.5
20260510155416 21 217 4.8 6.4 0.00 0.00 0.00 48 1016.4
20260510154913 21 348 6.4 9.7 0.00 0.00 0.00 48 1016.2
20260510154409 21 237 3.2 12.9 0.00 0.00 0.00 47 1016.3
20260510153902 21 263 3.2 20.9 0.00 0.00 0.00 49 1016.4
20260510153359 21 250 6.4 14.5 0.00 0.00 0.00 51 1016.1
20260510152856 21 244 4.8 11.3 0.00 0.00 0.00 53 1016.5
20260510152353 21 273 9.7 12.9 0.00 0.00 0.00 53 1016.5
20260510151849 20 201 4.8 6.4 0.00 0.00 0.00 56 1016.4
20260510151347 20 257 6.4 12.9 0.00 0.00 0.00 58 1016.3
20260510150843 20 189 12.9 14.5 0.00 0.00 0.00 57 1016.3
20260510150339 20 258 9.7 12.9 0.00 0.00 0.00 57 1016.5
20260510145835 20 234 4.8 12.9 0.00 0.00 0.00 59 1016.2
20260510145331 19 194 3.2 6.4 0.00 0.00 0.00 59 1016.4
20260510144828 19 218 3.2 4.8 0.00 0.00 0.00 61 1016.3
20260510144325 19 202 3.2 4.8 0.00 0.00 0.00 62 1016.3
20260510143825 18 186 4.8 4.8 0.00 0.00 0.00 62 1016.4
20260510143321 18 225 6.4 14.5 0.00 0.00 0.00 63 1016.3
20260510142818 18 229 3.2 9.7 0.00 0.00 0.00 64 1016.4
20260510142315 18 178 1.6 6.4 0.00 0.00 0.00 65 1016.4
20260510141812 18 241 3.2 9.7 0.00 0.00 0.00 65 1016.3
20260510141309 17 218 1.6 11.3 0.00 0.00 0.00 67 1016.4
20260510140807 17 225 3.2 14.5 0.00 0.00 0.00 69 1016.2
20260510140302 17 241 11.3 16.1 0.00 0.00 0.00 69 1016.3
20260510135801 17 216 4.8 6.4 0.00 0.00 0.00 69 1016.4
20260510135257 17 204 3.2 4.8 0.00 0.00 0.00 69 1016.5
20260510134755 17 232 4.8 6.4 0.00 0.00 0.00 71 1016.5
20260510134252 17 246 1.6 9.7 0.00 0.00 0.00 73 1016.4
20260510133743 16 248 3.2 6.4 0.00 0.00 0.00 72 1016.3
20260510133238 16 253 3.2 6.4 0.00 0.00 0.00 74 1016.4
20260510132734 16 238 4.8 6.4 0.00 0.00 0.00 77 1016.6
20260510132232 15 175 3.2 11.3 0.00 0.00 0.00 79 1016.6
20260510131729 15 255 3.2 14.5 0.00 0.00 0.00 78 1016.6
20260510131227 15 249 4.8 6.4 0.00 0.00 0.00 79 1016.4
20260510130723 15 240 4.8 12.9 0.00 0.00 0.00 82 1016.6
20260510130220 15 199 1.6 6.4 0.00 0.00 0.00 82 1016.4
20260510125717 14 216 4.8 6.4 0.00 0.00 0.00 84 1016.7
20260510125213 13 234 1.6 9.7 0.00 0.00 0.00 85 1016.4
20260510124709 13 267 4.8 11.3 0.00 0.00 0.00 86 1016.5
20260510124207 13 266 8.0 14.5 0.00 0.00 0.00 86 1016.4
20260510123702 13 229 1.6 12.9 0.00 0.00 0.00 87 1016.6
20260510123158 12 265 4.8 12.9 0.00 0.00 0.00 87 1016.5
20260510122654 12 261 3.2 4.8 0.00 0.00 0.00 89 1016.4
20260510122150 12 245 1.6 3.2 0.00 0.00 0.00 89 1016.4
20260510121647 11 216 0.0 3.2 0.00 0.00 0.00 90 1016.2
20260510121144 11 203 1.6 1.6 0.00 0.00 0.00 90 1016.2
20260510120642 10 213 1.6 1.6 0.00 0.00 0.00 90 1016.1
20260510120137 10 224 1.6 1.6 0.00 0.00 0.00 91 1016.0
20260510115633 10 234 0.0 1.6 0.00 0.00 0.00 91 1015.9
20260510115132 10 210 0.0 1.6 0.00 0.00 0.00 91 1016.0
20260510114627 10 216 1.6 1.6 0.00 0.00 0.00 92 1015.9
20260510114124 10 205 1.6 1.6 0.00 0.00 0.00 92 1015.9
20260510113619 10 223 1.6 1.6 0.00 0.00 0.00 93 1015.8
20260510113116 10 223 0.0 1.6 0.00 0.00 0.00 93 1015.8
20260510112613 10 221 0.0 0.0 0.00 0.00 0.00 94 1015.7
20260510112109 9 254 3.2 6.4 0.00 0.00 0.00 94 1015.6
20260510111606 9 225 1.6 1.6 0.00 0.00 0.00 94 1015.4
20260510111102 9 238 1.6 3.2 0.00 0.00 0.00 94 1015.4
20260510110558 9 246 0.0 3.2 0.00 0.00 0.00 94 1015.2
20260510110055 8 255 1.6 3.2 0.00 0.00 0.00 95 1015.1
20260510105550 8 245 0.0 1.6 0.00 0.00 0.00 95 1015.2
20260510105045 8 260 1.6 1.6 0.00 0.00 0.00 95 1015.0
20260510104542 8 247 0.0 0.0 0.00 0.00 0.00 95 1014.8
20260510104038 7 249 0.0 0.0 0.00 0.00 0.00 94 1014.7
20260510103536 7 249 0.0 0.0 0.00 0.00 0.00 94 1014.6
20260510103032 7 249 0.0 0.0 0.00 0.00 0.00 94 1014.6
20260510102527 7 249 0.0 0.0 0.00 0.00 0.00 94 1014.6
20260510102024 7 249 0.0 0.0 0.00 0.00 0.00 94 1014.5
20260510101521 8 249 0.0 0.0 0.00 0.00 0.00 94 1014.6
20260510101020 8 249 0.0 0.0 0.00 0.00 0.00 94 1014.5
20260510100516 8 249 0.0 0.0 0.00 0.00 0.00 94 1014.5
20260510100013 8 250 0.0 1.6 0.00 0.00 0.00 94 1014.4
20260510095508 8 255 1.6 1.6 0.00 0.00 0.00 94 1014.4
20260510095008 8 244 0.0 1.6 0.00 0.00 0.00 94 1014.3
20260510094502 8 239 0.0 1.6 0.00 0.00 0.00 94 1014.4
20260510093958 8 233 0.0 0.0 0.00 0.00 0.00 94 1014.3
20260510093454 8 233 0.0 0.0 0.00 0.00 0.00 94 1014.2
20260510092951 8 233 0.0 0.0 0.00 0.00 0.00 94 1014.3
20260510092448 8 243 0.0 1.6 0.00 0.00 0.00 94 1014.1
20260510091948 8 257 0.0 3.2 0.00 0.00 0.00 95 1014.3
20260510091445 8 275 1.6 1.6 0.00 0.00 0.00 95 1013.8
20260510090942 8 266 1.6 3.2 0.00 0.00 0.00 95 1013.9
20260510090438 8 264 1.6 3.2 0.00 0.00 0.00 95 1013.9
20260510085928 8 277 1.6 1.6 0.00 0.00 0.00 95 1014.2
20260510085423 7 248 1.6 1.6 0.00 0.00 0.00 95 1013.9
20260510084918 7 236 0.0 0.0 0.00 0.00 0.00 95 1013.7
20260510084417 7 237 0.0 0.0 0.00 0.00 0.00 95 1013.6
20260510083913 7 237 0.0 0.0 0.00 0.00 0.00 95 1013.7
20260510083410 7 237 0.0 0.0 0.00 0.00 0.00 95 1013.6
20260510082905 8 237 0.0 0.0 0.00 0.00 0.00 95 1013.6
20260510082403 8 243 0.0 0.0 0.00 0.00 0.00 95 1013.7
20260510081901 8 253 0.0 1.6 0.00 0.00 0.00 95 1013.4
20260510081357 8 261 0.0 1.6 0.00 0.00 0.00 95 1013.7
20260510080854 8 254 0.0 1.6 0.00 0.00 0.00 95 1013.6
20260510080348 7 259 0.0 1.6 0.00 0.00 0.00 95 1013.5
20260510075845 7 265 0.0 1.6 0.00 0.00 0.00 95 1013.6
20260510075343 7 250 0.0 1.6 0.00 0.00 0.00 94 1013.7
20260510074839 7 216 0.0 1.6 0.00 0.00 0.00 94 1013.5
20260510074337 7 208 0.0 1.6 0.00 0.00 0.00 94 1013.6
20260510073833 6 206 0.0 0.0 0.00 0.00 0.00 94 1013.5
20260510073329 7 205 0.0 0.0 0.00 0.00 0.00 94 1013.5
20260510072825 7 205 0.0 0.0 0.00 0.00 0.00 94 1013.4
20260510072322 7 205 0.0 0.0 0.00 0.00 0.00 94 1013.2
20260510071818 7 205 0.0 0.0 0.00 0.00 0.00 94 1013.4
20260510071309 7 205 0.0 0.0 0.00 0.00 0.00 94 1013.4
20260510070809 7 206 0.0 0.0 0.00 0.00 0.00 94 1013.3
20260510070304 7 205 0.0 0.0 0.00 0.00 0.00 94 1013.5
20260510065804 7 205 0.0 0.0 0.00 0.00 0.00 94 1013.4
20260510065301 7 205 0.0 0.0 0.00 0.00 0.00 93 1013.2
20260510064758 7 205 0.0 0.0 0.00 0.00 0.00 93 1013.3
20260510064256 8 205 0.0 0.0 0.00 0.00 0.00 93 1013.2
20260510063751 8 205 0.0 0.0 0.00 0.00 0.00 93 1013.1
20260510063248 8 205 0.0 0.0 0.00 0.00 0.00 93 1013.3
20260510062744 8 205 0.0 0.0 0.00 0.00 0.00 93 1013.3
20260510062240 8 205 0.0 0.0 0.00 0.00 0.00 93 1013.3
20260510061736 8 205 0.0 0.0 0.00 0.00 0.00 93 1013.1
20260510061233 8 205 0.0 0.0 0.00 0.00 0.00 93 1013.3
20260510060729 8 205 0.0 0.0 0.00 0.00 0.00 93 1013.6
20260510060226 8 205 0.0 1.6 0.00 0.00 0.00 93 1013.5
20260510055723 8 205 0.0 0.0 0.00 0.00 0.00 92 1013.5
20260510055221 9 205 0.0 0.0 0.00 0.00 0.00 92 1013.6
20260510054721 8 206 0.0 0.0 0.00 0.00 0.00 92 1013.3
20260510054218 9 206 0.0 0.0 0.00 0.00 0.00 92 1013.5
20260510053717 9 206 0.0 0.0 0.00 0.00 0.00 92 1013.4
20260510053214 9 206 0.0 0.0 0.00 0.00 0.00 91 1013.4
20260510052709 9 205 0.0 1.6 0.00 0.00 0.00 91 1013.3
20260510052206 9 203 0.0 0.0 0.00 0.00 0.00 91 1013.4
20260510051701 9 203 0.0 0.0 0.00 0.00 0.00 91 1013.5
20260510051158 10 212 0.0 1.6 0.00 0.00 0.00 91 1013.2
20260510050656 10 212 0.0 0.0 0.00 0.00 0.00 90 1013.1
20260510050153 10 212 0.0 0.0 0.00 0.00 0.00 90 1013.1
20260510045649 10 212 0.0 0.0 0.00 0.00 0.00 90 1013.2
20260510045146 10 212 0.0 0.0 0.00 0.00 0.00 90 1013.3
20260510044642 10 212 0.0 0.0 0.00 0.00 0.00 89 1013.3
20260510044140 10 207 0.0 0.0 0.00 0.00 0.00 89 1013.3
20260510043635 10 206 0.0 0.0 0.00 0.00 0.00 89 1013.3
20260510043132 10 205 0.0 0.0 0.00 0.00 0.00 88 1013.4
20260510042630 10 204 0.0 0.0 0.00 0.00 0.00 87 1013.3
20260510042125 11 204 0.0 0.0 0.00 0.00 0.00 86 1013.2
20260510041623 11 204 0.0 0.0 0.00 0.00 0.00 85 1013.1
20260510041120 11 204 0.0 1.6 0.00 0.00 0.00 84 1013.0
20260510040617 12 204 0.0 1.6 0.00 0.00 0.00 83 1013.1
20260510040113 12 244 0.0 1.6 0.00 0.00 0.00 83 1013.0
20260510035609 12 252 0.0 1.6 0.00 0.00 0.00 84 1013.3
20260510035109 11 259 1.6 1.6 0.00 0.00 0.00 84 1013.1
20260510034607 11 259 1.6 1.6 0.00 0.00 0.00 84 1013.1
20260510034104 11 235 0.0 0.0 0.00 0.00 0.00 84 1013.3
20260510033600 11 237 0.0 0.0 0.00 0.00 0.00 84 1012.9
20260510033058 12 252 0.0 1.6 0.00 0.00 0.00 84 1013.1
20260510032554 12 276 1.6 1.6 0.00 0.00 0.00 83 1013.0
20260510032050 12 241 0.0 0.0 0.00 0.00 0.00 83 1013.1
20260510031550 12 241 0.0 0.0 0.00 0.00 0.00 82 1012.9
20260510031046 12 241 0.0 0.0 0.00 0.00 0.00 81 1012.8
20260510030541 12 241 0.0 0.0 0.00 0.00 0.00 80 1012.8
20260510030039 12 241 0.0 0.0 0.00 0.00 0.00 80 1012.7
20260510025536 12 241 0.0 0.0 0.00 0.00 0.00 79 1012.8
20260510025034 12 241 0.0 1.6 0.00 0.00 0.00 79 1012.6
20260510024530 13 241 0.0 0.0 0.00 0.00 0.00 78 1012.7
20260510024026 13 241 0.0 0.0 0.00 0.00 0.00 77 1012.7
20260510023522 13 251 0.0 1.6 0.00 0.00 0.00 77 1012.7
20260510023020 13 243 0.0 0.0 0.00 0.00 0.00 78 1012.7
20260510022519 13 242 0.0 0.0 0.00 0.00 0.00 77 1012.6
20260510022014 13 244 1.6 1.6 0.00 0.00 0.00 77 1012.7
20260510021511 13 259 1.6 3.2 0.00 0.00 0.00 77 1012.7
20260510021008 13 253 1.6 3.2 0.00 0.00 0.00 77 1012.4
20260510020502 13 243 0.0 1.6 0.00 0.00 0.00 76 1012.4
20260510015958 14 223 0.0 0.0 0.00 0.00 0.00 75 1012.4
20260510015454 15 194 0.0 1.6 0.00 0.00 0.00 72 1012.3
20260510014949 16 232 0.0 3.2 0.00 0.00 0.00 64 1012.0
20260510014447 16 263 1.6 4.8 0.00 0.00 0.00 64 1011.9
20260510013944 15 263 3.2 3.2 0.00 0.00 0.00 67 1012.0
20260510013438 15 251 1.6 1.6 0.00 0.00 0.00 70 1012.0
20260510012934 15 251 0.0 1.6 0.00 0.00 0.00 71 1011.6
20260510012429 15 250 0.0 0.0 0.00 0.00 0.00 72 1011.7
20260510011924 15 250 0.0 0.0 0.00 0.00 0.00 72 1011.6
20260510011419 15 250 0.0 0.0 0.00 0.00 0.00 70 1011.7
20260510010915 15 250 0.0 0.0 0.00 0.00 0.00 68 1011.5
20260510010413 16 250 0.0 0.0 0.00 0.00 0.00 67 1011.3
20260510005909 16 250 0.0 0.0 0.00 0.00 0.00 65 1011.2
20260510005406 16 250 0.0 0.0 0.00 0.00 0.00 63 1011.2
20260510004903 16 250 0.0 1.6 0.00 0.00 0.00 62 1011.0
20260510004401 16 250 0.0 1.6 0.00 0.00 0.00 62 1011.1
20260510003858 17 252 0.0 1.6 0.00 0.00 0.00 61 1010.8
20260510003355 17 253 0.0 1.6 0.00 0.00 0.00 60 1010.8
20260510002854 17 249 0.0 1.6 0.00 0.00 0.00 60 1011.1
20260510002351 17 251 1.6 3.2 0.00 0.00 0.00 59 1011.1
20260510001848 17 248 0.0 3.2 0.00 0.00 0.00 59 1011.1
20260510001346 18 269 0.0 3.2 0.00 0.00 0.00 58 1010.5
20260510000842 18 256 1.6 4.8 0.00 0.00 0.00 58 1010.8
20260510000341 18 230 0.0 1.6 0.00 0.00 0.00 58 1010.6
20260509235836 18 234 0.0 1.6 0.00 0.00 0.00 58 1010.6
20260509235332 18 258 3.2 3.2 0.00 0.00 0.00 56 1010.8
20260509234828 18 258 1.6 3.2 0.00 0.00 0.00 57 1010.7
20260509234325 18 219 0.0 1.6 0.00 0.00 0.00 56 1010.8
20260509233824 19 238 1.6 1.6 0.00 0.00 0.00 56 1010.6
20260509233321 19 232 3.2 4.8 0.00 0.00 0.00 55 1010.5
20260509232816 20 233 1.6 1.6 0.00 0.00 0.00 55 1010.5
20260509232314 20 223 1.6 3.2 0.00 0.00 0.00 53 1010.5
20260509231810 20 220 1.6 3.2 0.00 0.00 0.00 51 1010.3
20260509231307 20 237 3.2 3.2 0.00 0.00 0.00 50 1010.4
20260509230805 20 243 4.8 4.8 0.00 0.00 0.00 53 1010.4
20260509230302 20 268 8.0 11.3 0.00 0.00 0.00 53 1010.2
20260509225757 20 219 1.6 3.2 0.00 0.00 0.00 53 1010.2
20260509225253 20 273 8.0 11.3 0.00 0.00 0.00 53 1010.5
20260509224749 19 208 1.6 3.2 0.00 0.00 0.00 55 1010.3
20260509224247 18 214 1.6 6.4 0.00 0.00 0.00 56 1010.4
20260509223743 18 235 1.6 6.4 0.00 0.00 0.00 56 1010.1
20260509223240 19 279 3.2 4.8 0.00 0.00 0.00 56 1010.1
20260509222737 19 262 1.6 4.8 0.00 0.00 0.00 56 1010.2
20260509222232 19 266 1.6 4.8 0.00 0.00 0.00 54 1010.2
20260509221728 20 234 3.2 4.8 0.00 0.00 0.00 54 1010.3
20260509221224 20 222 4.8 4.8 0.00 0.00 0.00 51 1010.1
20260509220720 20 261 3.2 4.8 0.00 0.00 0.00 52 1010.1
20260509220217 19 267 4.8 9.7 0.00 0.00 0.00 54 1010.2
20260509215713 20 229 3.2 4.8 0.00 0.00 0.00 53 1010.3
20260509215210 20 265 3.2 9.7 0.00 0.00 0.00 52 1010.1
20260509214707 20 267 8.0 11.3 0.00 0.00 0.00 53 1010.3
20260509214204 20 251 1.6 4.8 0.00 0.00 0.00 51 1010.2
20260509213700 21 250 4.8 6.4 0.00 0.00 0.00 51 1010.2
20260509213156 20 256 6.4 14.5 0.00 0.00 0.00 52 1010.1
20260509212654 20 194 6.4 16.1 0.00 0.00 0.00 51 1009.9
20260509212150 20 275 6.4 16.1 0.00 0.00 0.00 52 1010.2
20260509211646 19 209 1.6 6.4 0.00 0.00 0.00 54 1010.1
20260509211143 20 252 6.4 14.5 0.00 0.00 0.00 52 1009.9
20260509210640 20 146 3.2 6.4 0.00 0.00 0.00 51 1009.8
20260509210137 20 180 3.2 17.7 0.00 0.00 0.00 52 1009.8
20260509205632 20 199 3.2 16.1 0.00 0.00 0.00 51 1009.9
20260509205127 21 261 6.4 16.1 0.00 0.00 0.00 50 1010.1
20260509204623 20 266 6.4 9.7 0.00 0.00 0.00 51 1009.9
20260509204120 20 274 6.4 9.7 0.00 0.00 0.00 52 1009.9
20260509203615 20 217 3.2 4.8 0.00 0.00 0.00 51 1009.8
20260509203109 20 242 8.0 14.5 0.00 0.00 0.00 49 1010.0
20260509202608 20 236 9.7 17.7 0.00 0.00 0.00 49 1009.8
20260509202104 20 271 8.0 14.5 0.00 0.00 0.00 49 1009.9
20260509201604 21 226 6.4 17.7 0.00 0.00 0.00 51 1009.9
20260509201103 21 243 4.8 11.3 0.00 0.00 0.00 49 1009.8
20260509200603 20 190 4.8 6.4 0.00 0.00 0.00 51 1009.7
20260509200059 20 258 4.8 9.7 0.00 0.00 0.00 50 1009.8
20260509195554 20 246 8.0 12.9 0.00 0.00 0.00 51 1010.0
20260509195049 20 247 4.8 9.7 0.00 0.00 0.00 50 1009.8
20260509194549 20 213 3.2 22.5 0.00 0.00 0.00 49 1009.9
20260509194047 20 216 4.8 6.4 0.00 0.00 0.00 49 1009.7
20260509193542 20 279 8.0 11.3 0.00 0.00 0.00 51 1009.8
20260509193039 20 230 4.8 12.9 0.00 0.00 0.00 50 1009.9
20260509192536 20 202 4.8 11.3 0.00 0.00 0.00 52 1010.0
20260509192030 20 241 6.4 16.1 0.00 0.00 0.00 50 1010.0
20260509191525 20 215 3.2 11.3 0.00 0.00 0.00 50 1009.9
20260509191021 20 221 3.2 17.7 0.00 0.00 0.00 52 1009.8
20260509190518 19 274 11.3 14.5 0.00 0.00 0.00 50 1009.8
20260509190016 20 209 12.9 29.0 0.00 0.00 0.00 50 1010.0
20260509185513 20 257 6.4 27.4 0.00 0.00 0.00 50 1009.9
20260509185009 19 238 4.8 17.7 0.00 0.00 0.00 50 1009.7